Regional Weather Roundup
Issued by NWS

Home | Current Version | Previous Version | Text Only | Print | Product List | Glossary On
Versions: 1 2 3 4 5 6 7 8 9 10 11 12 13 14 15 16 17 18 19 20 21 22 23 24 25 26 27 28 29 30 31 32 33 34 35 36 37 38 39 40 41 42 43 44 45 46 47 48 49 50
000
ASUS43 KDTX 011110
RWRMI
MICHIGAN HOURLY REGIONAL WEATHER ROUNDUP
NATIONAL WEATHER SERVICE DETROIT/PONTIAC MI
700 AM EDT SAT AUG 01 2015

NOTE: "FAIR" INDICATES FEW OR NO CLOUDS BELOW 12,000 FEET WITH NO
SIGNIFICANT WEATHER AND/OR OBSTRUCTION TO VISIBILITY.

MIZ047>049-052>055-059>063-066>070-074>076-081>083-011200-
SOUTHEAST LOWER MICHIGAN

CITY           SKY/WX    TMP DP  RH WIND       PRES   REMARKS
ADRIAN         CLEAR     60  55  83 NW6       29.94S
ALMA           CLEAR     57  56  97 W3        29.91S
ANN ARBOR      CLEAR     59  55  87 MISG      29.92R
BAD AXE        CLEAR     54  53  97 CALM      29.89S
CARO           CLEAR     53  53  99 CALM      29.90R
DETROIT CITY   CLEAR     65  54  67 W5        29.91R
DETROIT        PTCLDY    63  55  75 W6        29.92R
FLINT          CLEAR     59  54  83 S3        29.91R
GROSSE ILE     CLEAR     63  55  77 W5        29.90S
HILLSDALE      CLEAR     60  58  94 W3        29.95S
HOWELL         CLEAR     58  55  92 W5        29.92S

CITY           SKY/WX    TMP DP  RH WIND       PRES   REMARKS
JACKSON        CLEAR     58  55  90 SW3       29.94R
LAMBERTVILLE   CLEAR     60  55  81 CALM      29.93S
LANSING        CLEAR     60  57  89 W3        29.93R
LAPEER         FAIR      54  53  97 CALM      29.91R
MASON          CLEAR     54  53  95 CALM      29.94R
MONROE         CLEAR     57  55  91 CALM      29.91S
PONTIAC        PTCLDY    62  55  77 W5        29.91R
PORT HOPE        N/A     59  57  93 SW6       29.86R
PORT HURON     CLEAR     55  55 100 CALM      29.90R
TRI CITIES     CLEAR     60  55  83 W8        29.91R
MIDLAND        FAIR      54  53  97 CALM      29.89S
TROY           CLEAR     65  55  70 NW5       29.93R
SAGINAW HB     CLEAR     57  54  88 CALM      29.89S
$$
MIZ043>046-050>051-056>058-064>065-071>073-077>080-011200-
SOUTHWEST LOWER MICHIGAN

CITY           SKY/WX    TMP DP  RH WIND       PRES   REMARKS
BATTLE CREEK   CLEAR     62  58  86 W6        29.95S
BENTON HARBOR  CLEAR     59  57  93 CALM      29.96R
BIG RAPIDS     CLEAR     55  55  98 CALM      29.91S FOG
COLDWATER      CLEAR     57  55  94 W5        29.96R
FREMONT        FAIR      55  55  99 CALM      29.92S
HOLLAND        CLEAR     63  60  90 W6        29.95R
GRAND RAPIDS   PTCLDY    61  58  90 W6        29.93S
IONIA          FAIR      61  57  87 W5        29.92S
KALAMAZOO      CLEAR     62  57  83 CALM      29.96S
LUDINGTON      MOCLDY    71  62  73 W6        29.90S
MARSHALL       CLEAR     58  56  94 CALM      29.94S
MOUNT PLEASANT FAIR      60  57  87 W5        29.89S
MUSKEGON       PTCLDY    66  59  78 W6        29.92S
SOUTH HAVEN    CLEAR     60  58  93 CALM      29.95S
$$
MIZ016>042-011200-
NORTHERN LOWER MICHIGAN

CITY           SKY/WX    TMP DP  RH WIND       PRES   REMARKS
ALPENA         CLEAR     58  54  86 SW3       29.85S
BEAVER ISLAND  PTCLDY    62  57  83 W3        29.84S
BELLAIRE       PTCLDY    52  50  93 CALM      29.87S
CADILLAC       PTCLDY    57  55  94 W3        29.90R
CHARLEVOIX     PTCLDY    65  59  81 W9        29.88S
FRANKFORT      MOCLDY    66  61  82 W6        29.88S
GAYLORD        CLEAR     56  55  97 W3        29.88R
GRAYLING       CLEAR     55  54  94 CALM      29.89R
HARBOR SPRINGS CLEAR     56  54  92 CALM      29.85S
HOUGHTON LAKE  CLEAR     62  57  83 W10       29.89S
MANISTEE       MOCLDY    54  52  94 E3        29.90S
OSCODA         CLOUDY    57  56  95 CALM      29.86S
PELLSTON       CLEAR     49  47  93 CALM      29.85R
ROGERS CITY    CLEAR     58  55  88 SW6       29.85S
TRAVERSE CITY  MOCLDY    61  57  87 S3        29.85S
$$
MIZ007>008-015-011200-
EASTERN UPPER MICHIGAN

CITY           SKY/WX    TMP DP  RH WIND       PRES   REMARKS
KINROSS        CLEAR     55  54  94 SW3       29.83R
MACKINAC ISLAN CLEAR     61  55  81 W8        29.83R
NEWBERRY       PTCLDY    55  53  96 W6        29.83R
S. S. MARIE    CLEAR     57  55  93 W6        29.82R
MUNISING         N/A     58  53  84 S5        29.83S
$$
MIZ004>006-011>014-085-011200-
CENTRAL UPPER MICHIGAN

CITY           SKY/WX    TMP DP  RH WIND       PRES   REMARKS
MANISTIQUE     MOCLDY    57  54  88 NW8       29.83S
ESCANABA       MOCLDY    57  54  88 W7        29.85R
MENOMINEE      CLEAR     57  52  82 W3        29.87S
SAWYER-GWINN   CLEAR     55  52  88 NW5       29.86S
$$
MIZ001>003-009>011-084-011200-
WESTERN UPPER MICHIGAN

CITY           SKY/WX    TMP DP  RH WIND       PRES   REMARKS
IRON MOUNTAIN  CLEAR     57  54  89 W5        29.88R
HOUGHTON       CLOUDY    59  55  87 W10       29.85R
COPPER HARBOR    N/A     64  53  67 VRB5      29.81S
IRONWOOD       CLEAR     54  52  94 W7          N/A
$$

ABBREVIATIONS USED IN REMARKS
   TC - TEMPERATURE IN CELSIUS
  WCI - WIND CHILL INDEX
   HX - HEAT INDEX
  VSB - VISIBILITY



USA.gov is the U.S. government's official web portal to all federal, state and local government web resources and services.